Other Surface Observations
Issued by NWS

Home | Current Version | Previous Version | Text Only | Print | Product List | Glossary On
Versions: 1 2 3 4 5 6 7 8 9 10 11 12 13 14 15 16 17 18 19 20 21 22 23 24 25 26 27 28 29 30 31 32 33 34 35 36 37 38 39 40 41 42 43 44 45 46 47 48 49 50
905
SXUS52 KTAE 230505
OSOTAE
OSOTAE
North Florida/South Alabama/Southwest Georgia Weather Roundup
National Weather Service Tallahassee Florida
1200 AM EST FRI FEB 23 2018

Note: "fair" indicates few or no clouds below 12,000 feet with no
significant weather and/or obstructions to visibility.

!FLZ017-115-028-034-025-230600
...North Florida...

CITY           SKY/WX    TMP DP  RH WIND       PRES   REMARKS
TALLAHASSEE    FAIR      63  60  90 CALM      30.37S
APALACHICOLA   FAIR      63  63 100 CALM      30.34F
PERRY          FAIR      70  63  80 CALM      30.39S
CROSS CITY     FAIR      69  67  93 E3        30.43R
JACKSONVILLE   FAIR      66  64  93 NE6       30.40S
$$

!FLZ112-006-005-002-011-230600
...Florida Panhandle...

CITY           SKY/WX    TMP DP  RH WIND       PRES   REMARKS
MARIANNA       FAIR      66  61  84 CALM      30.35S
BONIFAY        NOT AVBL
PANAMA CITY NW FAIR      62  60  93 CALM      30.34F
TYNDALL AFB    FAIR      64  64  99 CALM      30.35F
TYND DRONE APT FAIR      64  64  98 CALM      30.35F
DE FUNIAK SPR  FAIR      63  63  99 CALM      30.37S FOG
EGLIN AFB      PTCLDY    66  65  94 CALM      30.34S
DESTIN         FAIR      72  66  81 SE3       30.34F
HURLBURT       CLEAR     68  67  96 CALM      30.33F
CRESTVIEW      FOG       61  59  93 CALM      30.36F VSB 3/4
PENSACOLA      MOCLDY    70  67  90 SE7       30.34F
$$

!ALZ063-066-230600
...South Alabama...

CITY           SKY/WX    TMP DP  RH WIND       PRES   REMARKS
DOTHAN         FAIR      66  59  78 CALM      30.40S
OZARK CAIRNS   FAIR      65  62  89 CALM      30.36F
FT RUCKER HELI FAIR      63  61  94 CALM      30.36F
RUCKER HELI 3    N/A    N/A N/A N/A MISG        N/A
RUCKER HELI 2  FAIR      64  62  90 CALM      30.36F
FLORALA APT    FAIR      65  60  84 S5        30.37F
ANDALUSIA      FAIR      66  61  84 CALM      30.36S
TROY           FAIR      65  60  84 CALM      30.38R
EUFALA         FAIR      68  61  78 SE3       30.36F
MOBILE         MOCLDY    70  67  90 SE9       30.35F
$$

!GAZ120>161-230600
...Southwest and South Central Georgia...

CITY           SKY/WX    TMP DP  RH WIND       PRES   REMARKS
THOMASVILLE    FAIR      68  64  88 SE5       30.40S
BAINBRIDGE     FAIR      64  64 100 CALM      30.37S
MOODY AFB      FAIR      67  63  89 SE3       30.39S
VALDOSTA       FAIR      67  63  87 SE6       30.39S
MOULTRIE       FAIR      66  61  82 CALM      30.40S
BLAKELY        FAIR      63  61  94 CALM      30.38S
ALBANY         FAIR      66  61  84 E5        30.40S
TIFTON         FAIR      65  62  89 E3        30.40S
FITZGERALD     FAIR      66  63  90 CALM      30.43S
CORDELE        FAIR      73  63  71 SE9       30.41R
AMERICUS       FAIR      64  55  72 CALM      30.40F
HOMERVILLE     FAIR      64  63  94 CALM      30.41S
$$

!GMZ750-755-770-775-230600
...Coastal and Buoy Obs...

STATION/POSITION TIME  TEMP    WIND        PRES    VSBY  WAVE
                       AIR SEA DIR/SP/G                  HT/PER
                 (UTC) (F)     (DEG/KT/KT) (MB)    (MI)  (FT/S)
KEATON BEACH     0500   68      70/  5/  6 1028.8F
CEDAR KEY        0400   74     100/ 15/ 16 1028.9R
C TOWER          0500   71      40/  6/  6 1028.1F
APALACHICOLA BUO NOT AVBL
PANAMA CITY BUOY 0450   73 74   90/ 10/ 12 1026.8F         3/ 7
MOBILE BUOY      0450      75  100/ 14/ 17 1026.9F         5/ 8
ORANGE BCH AL BU NOT AVBL
$$




USA.gov is the U.S. government's official web portal to all federal, state and local government web resources and services.